DIAMANT R/B, 2017

Orbit data source: Space-Track

DIAMANT R/B, 2017 is space debris in LEO originally from a launch on Thu, 17 Feb 1966 UTC launched from the Hamma Guira Space Track Range (HGSTR). Debris objects in space refer to the collection of defunct objects orbiting the Earth. Examples of debris include non-operational satellites, rocket bodies, and fragments generated from explosions, collisions, or faulty payload assembly.

Loading next visibility...
Identifier
2017, 1966-013B
Orbit
LEO
Country
Flag of FRFR
Related business
Manufacturer
Sud
Mission
Spacecraft
Bus & Motor
RUBIS, Unknown motor
Mass
65 kg wet, 65 kg dry
Launch date (UTC)
1966-02-17 (60 years ago)
Launch vehicle
Unknown
Launch site
Hamma Guira Space Track Range (HGSTR)
Object type
Payload
Rocket body
Debris
Shape & HBR
Unknown
Radar Cross Section
Medium (>0.1 m² and <1 m²)

Expand to show TLE details & history
Last TLE update: 1 day ago

TLE from 1 day ago
0 DIAMANT R/B
1 02017U 66013B   26195.43214298  .00000328  00000-0  89985-4 0  9998
2 02017  34.0652 330.3065 1034435  22.2135 342.0170 12.93707676773302
Epoch: 2026-07-14T10:22Z
TLE epoch observation values (Epoch: 2026-07-14T10:22:17.153Z)
Latitude
-0.00002°
Longitude
-117.56739°
Altitude
540.861 km
Speed
7.953 km/s
True Right ascension
22h 01m 13s
True Declination
0° 00' 00"
Sunlit
Object was in full shadow at epoch
Visualization orbit readout
Latitude
Unknown
Longitude
Unknown
Altitude
Unknown
Speed
Unknown
Apparent Right ascension
Unknown
Apparent Declination
Unknown
Sunlit
N/A
Visualization observer readout
Local Sidereal Time
04:25:11
Azimuth
Unknown
Elevation
Unknown
Doppler factor
Unknown
Orbital elements
Apogee altitude
2,083.153 km
Perigee altitude
496.728 km
Semi-major axis
7,668.078 km
Eccentricity
0.10344
Inclination
34.0652°
RAAN
330.3065°
Arg. of periapsis
22.2135°
True anomaly
337.85122°
Mean anomaly
342.017°
Eccentric anomaly
339.9888°
Mean motion
3.23231 °/min
Orbital period
111.38 mins
BSTAR
0.000089985
Loading maneuver chart data...
Computing Atmospheric mass density...

Documentation

Showing up to 5 results
|